When you browse on this site, cookies collect data to enhance your experience and personalize the content and advertising you see.
Visit our Privacy Policy to learn more. By continuing to use the site, you agree to this use of cookies and data.
  • In United Kingdom
  • List of Countries
  • For 7 days
  • Water Temperature
  • Satellite Maps
  • Weather Map
  • Weather Widgets
  • user-avatar
    Login

    Hourly Weather Maubeuge

    Today, 18 February, Monday

    Time Temperature Precipitation Wind Pressure Humidity
    00:00 +7°C° 0 mm 3 mps 752 mmHg 86%
    01:00 +5°C° 0 mm 3 mps 751 mmHg 88%
    02:00 +5°C° 0 mm 3 mps 751 mmHg 89%
    03:00 +5°C° 0 mm 3 mps 751 mmHg 90%
    04:00 +4°C° 0 mm 3 mps 751 mmHg 90%
    05:00 +4°C° 0 mm 3 mps 751 mmHg 91%
    06:00 +4°C° 0 mm 3 mps 751 mmHg 92%
    07:00 +5°C° 0 mm 3 mps 751 mmHg 88%
    08:00 +6°C° 0 mm 4 mps 751 mmHg 85%
    09:00 +7°C° 0 mm 4 mps 751 mmHg 82%
    10:00 +8°C° 0 mm 4 mps 751 mmHg 78%
    11:00 +10°C° 0 mm 4 mps 750 mmHg 74%
    12:00 +12°C° 0 mm 4 mps 750 mmHg 70%
    13:00 +12°C° 0 mm 4 mps 750 mmHg 70%
    14:00 +12°C° 0 mm 4 mps 749 mmHg 70%
    15:00 +12°C° 0 mm 4 mps 749 mmHg 69%
    16:00 +11°C° 0 mm 4 mps 749 mmHg 75%
    17:00 +8°C° 0 mm 4 mps 749 mmHg 81%
    18:00 +8°C° 0 mm 3 mps 749 mmHg 87%
    19:00 +7°C° 0 mm 4 mps 749 mmHg 85%
    20:00 +6°C° 0 mm 4 mps 749 mmHg 83%
    21:00 +6°C° 0 mm 4 mps 749 mmHg 82%
    22:00 +6°C° 0.3 mm 4 mps 749 mmHg 86%
    23:00 +7°C° 0.3 mm 3 mps 749 mmHg 90%

    Tomorrow, 19 February, Tuesday

    Time Temperature Precipitation Wind Pressure Humidity
    00:00 +5°C° 0.3 mm 3 mps 750 mmHg 94%
    01:00 +5°C° 0.5 mm 3 mps 750 mmHg 95%
    02:00 +5°C° 0.5 mm 3 mps 750 mmHg 96%
    03:00 +5°C° 0.5 mm 3 mps 750 mmHg 96%
    04:00 +5°C° 0 mm 3 mps 750 mmHg 96%
    05:00 +5°C° 0 mm 3 mps 750 mmHg 96%
    06:00 +5°C° 0 mm 3 mps 750 mmHg 96%
    07:00 +5°C° 0 mm 3 mps 751 mmHg 93%
    08:00 +5°C° 0 mm 3 mps 751 mmHg 89%
    09:00 +6°C° 0 mm 4 mps 752 mmHg 85%
    10:00 +7°C° 0 mm 4 mps 752 mmHg 81%
    11:00 +8°C° 0 mm 4 mps 752 mmHg 76%
    12:00 +10°C° 0 mm 4 mps 752 mmHg 71%
    13:00 +10°C° 0 mm 4 mps 752 mmHg 70%
    14:00 +10°C° 0 mm 4 mps 752 mmHg 68%
    15:00 +10°C° 0 mm 4 mps 752 mmHg 66%
    16:00 +9°C° 0 mm 3 mps 752 mmHg 72%
    17:00 +7°C° 0 mm 3 mps 752 mmHg 77%
    18:00 +6°C° 0 mm 2 mps 752 mmHg 83%
    19:00 +6°C° 0 mm 2 mps 753 mmHg 84%
    20:00 +5°C° 0 mm 2 mps 753 mmHg 86%
    21:00 +5°C° 0 mm 2 mps 753 mmHg 88%
    22:00 +3°C° 0 mm 3 mps 753 mmHg 87%
    23:00 +3°C° 0 mm 3 mps 753 mmHg 86%

    Day after tomorrow, 20 February, Wednesday

    Time Temperature Precipitation Wind Pressure Humidity
    00:00 +3°C° 0 mm 3 mps 753 mmHg 86%
    01:00 +3°C° 0 mm 3 mps 753 mmHg 85%
    02:00 +2°C° 0 mm 3 mps 753 mmHg 84%
    03:00 +2°C° 0 mm 3 mps 752 mmHg 84%
    04:00 +2°C° 0 mm 3 mps 752 mmHg 85%
    05:00 +3°C° 0 mm 4 mps 752 mmHg 85%
    06:00 +3°C° 0 mm 4 mps 752 mmHg 86%
    07:00 +4°C° 0 mm 4 mps 753 mmHg 86%
    08:00 +3°C° 0 mm 5 mps 753 mmHg 86%
    09:00 +5°C° 0 mm 5 mps 753 mmHg 85%
    10:00 +6°C° 0 mm 5 mps 753 mmHg 81%
    11:00 +8°C° 0 mm 5 mps 753 mmHg 76%
    12:00 +9°C° 0 mm 6 mps 754 mmHg 72%
    13:00 +9°C° 0 mm 5 mps 754 mmHg 71%
    14:00 +9°C° 0 mm 5 mps 753 mmHg 70%
    15:00 +10°C° 0 mm 4 mps 753 mmHg 70%
    16:00 +8°C° 0 mm 4 mps 754 mmHg 74%
    17:00 +7°C° 0 mm 4 mps 754 mmHg 78%
    18:00 +7°C° 0 mm 3 mps 754 mmHg 82%
    19:00 +7°C° 0 mm 3 mps 754 mmHg 84%
    20:00 +5°C° 0 mm 3 mps 755 mmHg 86%
    21:00 +5°C° 0 mm 3 mps 755 mmHg 88%
    22:00 +5°C° 0 mm 3 mps 755 mmHg 90%
    23:00 +5°C° 0 mm 3 mps 755 mmHg 91%

    21 February, Thursday

    Time Temperature Precipitation Wind Pressure Humidity
    00:00 +4°C° 0 mm 4 mps 755 mmHg 93%
    01:00 +4°C° 0 mm 3 mps 755 mmHg 93%
    02:00 +4°C° 0 mm 3 mps 756 mmHg 94%
    03:00 +4°C° 0 mm 3 mps 756 mmHg 95%
    04:00 +4°C° 0 mm 3 mps 756 mmHg 94%
    05:00 +4°C° 0 mm 3 mps 756 mmHg 94%
    06:00 +5°C° 0 mm 3 mps 757 mmHg 93%
    07:00 +5°C° 0 mm 4 mps 757 mmHg 91%
    08:00 +6°C° 0 mm 4 mps 757 mmHg 89%
    09:00 +7°C° 0 mm 4 mps 758 mmHg 87%
    10:00 +8°C° 0 mm 4 mps 758 mmHg 83%
    11:00 +10°C° 0 mm 4 mps 758 mmHg 79%
    12:00 +11°C° 0 mm 3 mps 758 mmHg 75%
    13:00 +12°C° 0 mm 3 mps 758 mmHg 73%
    14:00 +12°C° 0 mm 3 mps 758 mmHg 71%
    15:00 +14°C° 0 mm 2 mps 758 mmHg 70%
    16:00 +12°C° 0 mm 2 mps 758 mmHg 74%
    17:00 +10°C° 0 mm 2 mps 759 mmHg 79%
    18:00 +9°C° 0 mm 1 mps 759 mmHg 84%
    19:00 +9°C° 0 mm 1 mps 759 mmHg 85%
    20:00 +9°C° 0 mm 1 mps 760 mmHg 85%
    21:00 +9°C° 0 mm 1 mps 760 mmHg 85%
    22:00 +8°C° 0 mm 1 mps 761 mmHg 86%
    23:00 +8°C° 0 mm 1 mps 761 mmHg 87%

    22 February, Friday

    Time Temperature Precipitation Wind Pressure Humidity
    00:00 +8°C° 0 mm 1 mps 761 mmHg 87%
    01:00 +7°C° 0 mm 1 mps 761 mmHg 87%
    02:00 +7°C° 0 mm 1 mps 761 mmHg 88%
    03:00 +6°C° 0 mm 2 mps 761 mmHg 88%
    04:00 +6°C° 0 mm 2 mps 762 mmHg 88%
    05:00 +7°C° 0 mm 1 mps 762 mmHg 89%
    06:00 +7°C° 0 mm 1 mps 762 mmHg 89%
    07:00 +7°C° 0 mm 2 mps 763 mmHg 85%
    08:00 +8°C° 0 mm 2 mps 763 mmHg 82%
    09:00 +9°C° 0 mm 2 mps 764 mmHg 79%
    10:00 +12°C° 0 mm 2 mps 764 mmHg 74%
    11:00 +14°C° 0 mm 2 mps 764 mmHg 70%
    12:00 +15°C° 0 mm 1 mps 764 mmHg 65%
    13:00 +16°C° 0 mm 1 mps 764 mmHg 65%
    14:00 +16°C° 0 mm 1 mps 763 mmHg 65%
    15:00 +18°C° 0 mm 1 mps 763 mmHg 65%
    16:00 +15°C° 0 mm 2 mps 763 mmHg 72%
    17:00 +13°C° 0 mm 2 mps 763 mmHg 79%
    18:00 +12°C° 0 mm 2 mps 764 mmHg 85%
    19:00 +10°C° 0 mm 2 mps 764 mmHg 87%
    20:00 +10°C° 0 mm 2 mps 764 mmHg 89%
    21:00 +9°C° 0 mm 2 mps 764 mmHg 91%
    22:00 +9°C° 0 mm 2 mps 764 mmHg 91%
    23:00 +9°C° 0 mm 2 mps 764 mmHg 91%

    23 February, Saturday

    Time Temperature Precipitation Wind Pressure Humidity
    00:00 +8°C° 0 mm 2 mps 764 mmHg 91%
    01:00 +8°C° 0 mm 2 mps 764 mmHg 91%
    02:00 +7°C° 0 mm 2 mps 764 mmHg 91%
    03:00 +7°C° 0 mm 2 mps 764 mmHg 91%
    04:00 +5°C° 0 mm 3 mps 764 mmHg 90%
    05:00 +5°C° 0 mm 3 mps 764 mmHg 89%
    06:00 +5°C° 0 mm 3 mps 764 mmHg 88%
    07:00 +7°C° 0 mm 3 mps 764 mmHg 82%
    08:00 +8°C° 0 mm 3 mps 764 mmHg 76%
    09:00 +8°C° 0 mm 4 mps 764 mmHg 69%
    10:00 +11°C° 0 mm 3 mps 764 mmHg 65%
    11:00 +12°C° 0 mm 3 mps 764 mmHg 60%
    12:00 +14°C° 0 mm 3 mps 764 mmHg 55%
    13:00 +14°C° 0 mm 3 mps 764 mmHg 56%
    14:00 +14°C° 0 mm 3 mps 763 mmHg 56%
    15:00 +16°C° 0 mm 3 mps 763 mmHg 57%
    16:00 +14°C° 0 mm 2 mps 763 mmHg 63%
    17:00 +12°C° 0 mm 2 mps 763 mmHg 70%
    18:00 +9°C° 0 mm 2 mps 763 mmHg 77%
    19:00 +9°C° 0 mm 2 mps 763 mmHg 78%
    20:00 +8°C° 0 mm 3 mps 763 mmHg 80%
    21:00 +8°C° 0 mm 3 mps 763 mmHg 82%
    22:00 +7°C° 0 mm 3 mps 763 mmHg 82%
    23:00 +7°C° 0 mm 3 mps 763 mmHg 82%
    Show more